Simultaneous Nadir Overpasses (SNOs) Predictions

Prediction of SNOs between GOES-17 and AQUA Satellite Orbit:

Table of predicted SNOs for the next 14.0 days since TLE Epoch: 9/26/2020
Index Date Time (GOES-17) GOES-17 Lat,Lon AQUA Lat,Lon Distance(km) Time Diff (sec)
1 09/26/2020 10:39:32 0.05,-137.21 -0.29,-135.68 173.81 80
2 09/26/2020 22:58:15 -0.04,-137.20 -0.84,-140.87 418.03 80
3 09/28/2020 22:46:04 -0.04,-137.19 -0.16,-137.93 82.75 80
4 09/30/2020 22:36:32 -0.03,-137.19 0.46,-134.97 252.53 80
5 10/01/2020 10:55:07 0.03,-137.19 0.65,-140.12 333.06 80
6 10/03/2020 10:42:55 0.03,-137.18 0.03,-137.17 1.73 80
7 10/05/2020 10:33:23 0.03,-137.16 -0.59,-134.21 335.75 80
8 10/05/2020 22:52:07 -0.03,-137.14 -0.51,-139.40 256.43 80
9 10/07/2020 22:42:35 -0.03,-137.12 0.12,-136.44 76.57 80
10 10/09/2020 22:30:23 -0.02,-137.08 0.76,-133.49 408.64 80
